Location: DARK SKY Beskydy - Park tmavé oblohy, www.darkskybeskydy.cz
(49.4926°N, 18.5016°E)
Time: 07:59:33
(UTC+02:00)

SR - All Passes

Search period start: 20 July 2024 00:00
Search period end: 30 July 2024 00:00
Orbit: 581 x 856 km, 66.7° (Epoch: 19 July)

Date Brightness Start Highest point End Pass type
(mag) Time Alt. Az. Time Alt. Az. Time Alt. Az.
20 Jul - 03:21:23 10° SSE 03:25:01 24° ESE 03:28:31 10° ENE visible
20 Jul - 05:02:08 10° SW 05:06:34 51° NW 05:10:48 10° NNE daylight
20 Jul - 06:47:07 10° WNW 06:49:20 14° NNW 06:51:34 10° N daylight
20 Jul - 10:14:52 10° N 10:17:03 14° NNE 10:19:14 10° ENE daylight
20 Jul - 11:55:39 10° NNW 11:59:49 52° NE 12:04:08 10° SE daylight
20 Jul - 13:38:00 10° WNW 13:41:20 22° WSW 13:44:47 10° SSW daylight
21 Jul - 02:31:35 10° ESE 02:32:54 11° ESE 02:34:11 10° E visible
21 Jul - 04:09:28 10° SSW 04:14:01 80° SE 04:18:21 10° NE visible
21 Jul - 05:52:59 10° W 05:56:20 20° NW 05:59:35 10° NNE daylight
21 Jul - 11:03:23 10° NNW 11:07:07 29° NE 11:10:56 10° ESE daylight
21 Jul - 12:44:58 10° NW 12:49:04 46° WSW 12:53:20 10° SSE daylight
22 Jul - 03:17:24 10° S 03:21:38 38° ESE 03:25:40 10° NE visible
22 Jul - 04:59:23 10° WSW 05:03:29 34° NW 05:07:25 10° NNE daylight
22 Jul - 06:45:31 10° NW 06:46:35 11° NNW 06:47:38 10° N daylight
22 Jul - 10:11:15 10° NNW 10:14:13 18° NNE 10:17:12 10° ENE daylight
22 Jul - 11:52:21 10° NW 11:56:38 85° NE 12:01:05 10° SE daylight
22 Jul - 13:35:46 10° W 13:37:52 13° WSW 13:39:59 10° SW daylight
23 Jul - 02:26:13 10° SSE 02:29:23 19° ESE 02:32:27 10° ENE visible
23 Jul - 04:06:19 10° SW 04:10:48 64° NW 04:15:05 10° NNE visible
23 Jul - 05:50:50 10° WNW 05:53:26 15° NNW 05:56:00 10° N daylight
23 Jul - 09:19:22 10° N 09:21:07 12° NNE 09:22:52 10° NE daylight
23 Jul - 10:59:57 10° NNW 11:04:02 43° NE 11:08:15 10° ESE daylight
23 Jul - 12:42:01 10° NW 12:45:42 28° WSW 12:49:30 10° S daylight
24 Jul - 03:13:48 10° SSW 03:18:17 64° ESE 03:22:34 10° NE visible
24 Jul - 04:56:51 10° W 05:00:27 24° NW 05:03:57 10° NNE daylight
24 Jul - 10:07:43 10° NNW 10:11:15 25° NE 10:14:51 10° E daylight
24 Jul - 11:49:09 10° NW 11:53:21 59° WSW 11:57:45 10° SSE daylight
25 Jul - 02:21:57 10° S 02:25:55 30° ESE 02:29:45 10° NE visible
25 Jul - 04:03:25 10° WSW 04:07:38 40° NW 04:11:43 10° NNE visible
25 Jul - 05:48:57 10° NW 05:50:36 12° NNW 05:52:14 10° N daylight
25 Jul - 09:15:38 10° N 09:18:16 16° NNE 09:20:56 10° ENE daylight
25 Jul - 10:56:36 10° NNW 11:00:52 68° NE 11:05:17 10° SE daylight
25 Jul - 12:39:24 10° WNW 12:42:13 17° WSW 12:45:06 10° SSW daylight
26 Jul - 01:31:12 10° SE 01:33:43 15° ESE 01:36:11 10° ENE visible
26 Jul - 03:10:29 10° SW 03:15:00 79° NW 03:19:19 10° NE visible
26 Jul - 04:54:33 10° WNW 04:57:29 17° NNW 05:00:22 10° N daylight
26 Jul - 08:23:55 10° N 08:25:07 11° NNE 08:26:20 10° NE daylight
26 Jul - 10:04:14 10° NNW 10:08:11 35° NE 10:12:15 10° ESE daylight
26 Jul - 11:46:04 10° NW 11:49:59 35° WSW 11:54:04 10° S daylight
27 Jul - 02:18:09 10° SSW 02:22:32 50° ESE 02:26:42 10° NE visible
27 Jul - 04:00:44 10° W 04:04:32 27° NW 04:08:14 10° NNE visible
27 Jul - 09:12:01 10° NNW 09:15:19 21° NE 09:18:41 10° E daylight
27 Jul - 10:53:17 10° NW 10:57:34 74° WSW 11:02:03 10° SSE daylight
28 Jul - 01:26:34 10° SSE 01:30:12 24° ESE 01:33:42 10° ENE visible
28 Jul - 03:07:26 10° SW 03:11:46 49° NW 03:15:56 10° NNE visible
28 Jul - 04:52:28 10° NW 04:54:35 13° NNW 04:56:40 10° N daylight
28 Jul - 08:19:58 10° N 08:22:17 14° NNE 08:24:35 10° ENE daylight
28 Jul - 10:00:48 10° NNW 10:05:00 55° NE 10:09:23 10° SE daylight
28 Jul - 11:43:12 10° WNW 11:46:30 21° WSW 11:49:55 10° SSW daylight
29 Jul - 00:36:35 10° SE 00:38:02 11° ESE 00:39:28 10° E visible
29 Jul - 02:14:40 10° SSW 02:19:10 84° SE 02:23:28 10° NE visible
29 Jul - 03:58:16 10° W 04:01:29 20° NW 04:04:40 10° NNE visible
29 Jul - 09:08:28 10° NNW 09:12:15 30° NE 09:16:10 10° ESE daylight
29 Jul - 10:50:05 10° NW 10:54:12 44° WSW 10:58:29 10° S daylight
